sat.trackr.live / text

‹ back to catalog

FENGYUN 4A

NORAD 41882 · 2016-077A

PAYLOAD ACTIVE UNKNOWN

§ Identity

Operator
Country
PRC
Launch date
2016-12-10
Launch site
XICLF
Launch vehicle
Mass (kg)
RCS (m²)
22.59

Purposes: comms, earth_obs

External: N2YO · Heavens-Above · Gunter

§ Orbital elements

Epoch: 2026-05-24T23:11:53.377728Z

Period
1,436.20 min
Inclination
2.2664°
Eccentricity
0.0008430
Mean motion
1.00264496 rev/d
Perigee alt
35,753.1 km
Apogee alt
35,824.2 km
Semi-major
42,166.8 km
B*
0.0000e+0
RAAN
80.5234°
Arg perigee
146.1954°
Mean anomaly
127.4013°
Rev number
3,469

§ Raw data

FENGYUN 4A1 41882U 16077A   26144.96659002 -.00000359  00000+0  00000+0 0  99942 41882   2.2664  80.5234 0008430 146.1954 127.4013  1.00264496 34694

JSON: /api/v1/satellites/41882 · /tle

For live sub-satellite position, see the globe view (requires WebGL).

§ Visibility from observer

Set your observer location to see the next 7 days of passes ≥ 10°. The values pass through the URL so the page stays shareable.

No JS? Fill the form by hand. The geolocation button needs JavaScript.